QPF
0.00 0.00 0.00 0.00 0.00 0.00 0.00 0.00 0.00 0.00 0.00 0.00 0.00 0.00 0.00 0.00 0.00 0.00 0.00 0.00 0.00 0.00 0.00 0.00 0.00 0.00 0.00 0.00 0.00 0.00 0.00 0.00 0.00 0.00 0.00 0.01 0.02 0.01 0.02 0.01 0.01 0.01 0.02
0.00 0.00 0.00 0.00 0.00 0.00 0.00 0.00 0.00 0.00 0.00 0.00 0.00 0.00 0.00 0.00 0.00 0.00 0.00 0.00 0.00 0.00 0.00 0.00 0.00 0.00 0.00 0.00 0.00 0.00 0.00 0.00 0.00 0.00 0.00 0.01 0.01 0.02 0.01 0.01 0.00 0.01 0.03
0.00 0.00 0.00 0.00 0.00 0.00 0.00 0.00 0.00 0.00 0.00 0.00 0.00 0.00 0.00 0.00 0.00 0.00 0.00 0.00 0.00 0.00 0.00 0.00 0.00 0.00 0.00 0.00 0.00 0.00 0.00 0.00 0.00 0.00 0.00 0.00 0.01 0.02 0.01 0.00 0.00 0.01 0.01
0.00 0.00 0.00 0.00 0.00 0.00 0.00 0.00 0.00 0.00 0.00 0.00 0.00 0.00 0.00 0.00 0.00 0.00 0.00 0.00 0.00 0.00 0.00 0.00 0.00 0.00 0.00 0.00 0.00 0.00 0.00 0.00 0.00 0.00 0.00 0.00 0.00 0.01 0.01 0.00 0.00 0.00 0.00
0.00 0.00 0.00 0.00 0.00 0.00 0.00 0.00 0.00 0.00 0.00 0.00 0.00 0.00 0.00 0.00 0.00 0.00 0.00 0.00 0.00 0.00 0.00 0.00 0.00 0.00 0.00 0.00 0.00 0.00 0.00 0.00 0.00 0.00 0.00 0.00 0.00 0.00 0.01 0.00 0.00 0.00 0.00
0.00 0.00 0.00 0.00 0.00 0.00 0.00 0.00 0.00 0.00 0.00 0.00 0.00 0.00 0.00 0.00 0.00 0.00 0.00 0.00 0.00 0.00 0.00 0.00 0.00 0.00 0.00 0.00 0.00 0.00 0.00 0.00 0.00 0.00 0.00 0.00 0.00 0.00 0.00 0.00 0.00 0.00 0.00
0.00 0.00 0.00 0.00 0.00 0.00 0.00 0.00 0.00 0.00 0.00 0.00 0.00 0.00 0.00 0.00 0.00 0.00 0.00 0.00 0.00 0.00 0.00 0.00 0.00 0.00 0.00 0.00 0.00 0.00 0.00 0.00 0.00 0.00 0.00 0.00 0.00 0.01 0.02 0.01 0.00 0.00 0.00
0.00 0.00 0.00 0.00 0.00 0.00 0.00 0.00 0.00 0.00 0.00 0.00 0.00 0.00 0.00 0.00 0.00 0.00 0.00 0.00 0.00 0.00 0.00 0.00 0.00 0.00 0.00 0.00 0.00 0.00 0.00 0.00 0.00 0.00 0.00 0.00 0.00 0.02 0.04 0.03 0.01 0.01 0.00
0.00 0.00 0.00 0.01 0.01 0.01 0.01 0.01 0.01 0.01 0.01 0.01 0.01 0.00 0.00 0.00 0.00 0.00 0.00 0.00 0.00 0.00 0.00 0.00 0.00 0.00 0.00 0.00 0.00 0.00 0.00 0.01 0.01 0.02 0.00 0.00 0.00 0.02 0.07 0.09 0.05 0.02 0.01
0.00 0.00 0.01 0.01 0.01 0.02 0.02 0.02 0.02 0.02 0.03 0.02 0.01 0.01 0.01 0.01 0.01 0.01 0.00 0.00 0.00 0.00 0.00 0.00 0.00 0.00 0.00 0.01 0.02 0.02 0.01 0.01 0.03 0.05 0.02 0.00 0.00 0.02 0.11 0.19 0.14 0.07 0.03
0.01 0.01 0.01 0.02 0.02 0.03 0.03 0.04 0.05 0.06 0.07 0.07 0.04 0.02 0.01 0.01 0.00 0.00 0.00 0.00 0.00 0.01 0.02 0.04 0.05 0.04 0.04 0.02 0.02 0.03 0.03 0.02 0.03 0.03 0.01 0.01 0.02 0.05 0.19 0.30 0.25 0.17 0.09
0.01 0.01 0.02 0.02 0.02 0.03 0.04 0.05 0.06 0.08 0.09 0.09 0.07 0.05 0.03 0.01 0.00 0.00 0.00 0.01 0.02 0.07 0.11 0.14 0.18 0.23 0.22 0.10 0.05 0.05 0.04 0.04 0.05 0.03 0.02 0.06 0.07 0.07 0.18 0.34 0.33 0.24 0.18
0.01 0.02 0.03 0.02 0.02 0.03 0.03 0.03 0.03 0.05 0.07 0.07 0.06 0.05 0.04 0.02 0.01 0.01 0.02 0.03 0.09 0.19 0.19 0.21 0.34 0.29 0.25 0.20 0.19 0.14 0.12 0.13 0.09 0.05 0.03 0.09 0.14 0.13 0.19 0.29 0.30 0.27 0.20
0.06 0.10 0.13 0.11 0.09 0.05 0.03 0.02 0.01 0.02 0.04 0.05 0.07 0.08 0.07 0.09 0.12 0.15 0.16 0.15 0.17 0.23 0.27 0.26 0.24 0.28 0.38 0.37 0.27 0.17 0.13 0.10 0.10 0.11 0.07 0.06 0.14 0.18 0.20 0.22 0.23 0.24 0.23
0.23 0.30 0.31 0.28 0.20 0.12 0.07 0.05 0.03 0.04 0.06 0.11 0.14 0.15 0.19 0.30 0.37 0.35 0.26 0.16 0.15 0.22 0.30 0.39 0.41 0.47 0.50 0.37 0.20 0.15 0.16 0.13 0.12 0.10 0.04 0.04 0.15 0.20 0.18 0.19 0.19 0.22 0.24
0.37 0.45 0.45 0.38 0.28 0.23 0.19 0.18 0.18 0.19 0.18 0.20 0.21 0.26 0.32 0.38 0.41 0.32 0.22 0.15 0.14 0.18 0.21 0.28 0.31 0.30 0.28 0.21 0.15 0.10 0.09 0.10 0.10 0.06 0.03 0.01 0.05 0.10 0.10 0.14 0.17 0.22 0.25
0.38 0.46 0.38 0.28 0.29 0.35 0.39 0.40 0.39 0.33 0.26 0.24 0.23 0.25 0.25 0.24 0.24 0.21 0.19 0.14 0.12 0.13 0.14 0.16 0.19 0.17 0.13 0.09 0.06 0.03 0.02 0.04 0.04 0.04 0.02 0.01 0.00 0.01 0.02 0.04 0.08 0.14 0.20
0.25 0.28 0.23 0.22 0.38 0.53 0.56 0.48 0.42 0.35 0.25 0.20 0.17 0.14 0.12 0.11 0.10 0.09 0.07 0.05 0.03 0.03 0.03 0.05 0.05 0.04 0.03 0.01 0.01 0.01 0.01 0.00 0.00 0.00 0.00 0.00 0.00 0.00 0.00 0.01 0.02 0.06 0.13
0.09 0.13 0.11 0.17 0.40 0.50 0.46 0.38 0.31 0.27 0.19 0.14 0.12 0.09 0.08 0.07 0.05 0.04 0.03 0.01 0.01 0.01 0.00 0.00 0.00 0.00 0.01 0.00 0.00 0.00 0.00 0.00 0.00 0.00 0.00 0.00 0.00 0.00 0.00 0.00 0.00 0.01 0.04
0.02 0.03 0.03 0.06 0.16 0.24 0.21 0.18 0.16 0.16 0.12 0.07 0.06 0.06 0.05 0.04 0.03 0.03 0.02 0.01 0.00 0.00 0.00 0.00 0.00 0.00 0.00 0.00 0.00 0.00 0.00 0.00 0.00 0.00 0.00 0.00 0.00 0.00 0.00 0.00 0.00 0.00 0.01
0.00 0.00 0.02 0.06 0.13 0.13 0.12 0.09 0.07 0.06 0.05 0.03 0.02 0.03 0.03 0.02 0.02 0.02 0.01 0.00 0.00 0.00 0.00 0.00 0.00 0.00 0.00 0.00 0.00 0.00 0.00 0.00 0.00 0.00 0.00 0.00 0.00 0.00 0.00 0.00 0.00 0.00 0.00
0.00 0.01 0.02 0.05 0.08 0.08 0.07 0.08 0.08 0.06 0.04 0.03 0.02 0.02 0.02 0.02 0.01 0.02 0.01 0.00 0.00 0.00 0.00 0.00 0.00 0.00 0.00 0.00 0.00 0.00 0.00 0.00 0.00 0.00 0.00 0.00 0.00 0.00 0.00 0.00 0.00 0.00 0.00
0.01 0.01 0.02 0.04 0.05 0.05 0.05 0.06 0.07 0.07 0.06 0.05 0.03 0.02 0.02 0.03 0.02 0.02 0.01 0.00 0.00 0.00 0.00 0.00 0.00 0.00 0.00 0.00 0.00 0.00 0.00 0.00 0.00 0.00 0.00 0.00 0.00 0.00 0.00 0.00 0.00 0.00 0.00
0.02 0.02 0.03 0.05 0.06 0.05 0.05 0.05 0.05 0.05 0.06 0.06 0.05 0.04 0.03 0.03 0.03 0.02 0.01 0.01 0.00 0.00 0.00 0.00 0.00 0.00 0.00 0.00 0.00 0.00 0.00 0.00 0.00 0.00 0.00 0.00 0.00 0.00 0.00 0.00 0.00 0.00 0.00
0.01 0.01 0.02 0.04 0.05 0.06 0.06 0.05 0.04 0.04 0.04 0.05 0.05 0.06 0.07 0.08 0.08 0.07 0.05 0.03 0.02 0.01 0.00 0.00 0.00 0.00 0.00 0.00 0.00 0.00 0.00 0.00 0.00 0.00 0.00 0.00 0.00 0.00 0.00 0.00 0.00 0.00 0.00
0.00 0.00 0.00 0.01 0.01 0.02 0.03 0.04 0.04 0.03 0.03 0.04 0.05 0.05 0.09 0.13 0.17 0.16 0.14 0.12 0.09 0.05 0.02 0.01 0.00 0.00 0.00 0.00 0.00 0.00 0.00 0.00 0.00 0.00 0.00 0.00 0.00 0.00 0.00 0.00 0.00 0.00 0.00
MSLP
1009.93 1009.69 1009.79 1010.20 1010.81 1011.48 1012.07 1012.49 1012.70 1012.71 1012.60 1012.50 1012.49 1012.64 1012.96 1013.41 1013.92 1014.41 1014.81 1015.08 1015.23 1015.30 1015.34 1015.38 1015.47 1015.61 1015.78 1015.94 1016.07 1016.14 1016.17 1016.15 1016.13 1016.13 1016.16 1016.24 1016.35 1016.48 1016.62 1016.74 1016.84 1016.94 1017.05
1009.45 1009.32 1009.51 1009.98 1010.62 1011.32 1011.93 1012.37 1012.60 1012.65 1012.60 1012.55 1012.59 1012.79 1013.13 1013.58 1014.08 1014.54 1014.91 1015.15 1015.29 1015.36 1015.41 1015.48 1015.59 1015.75 1015.93 1016.09 1016.22 1016.28 1016.30 1016.29 1016.27 1016.27 1016.32 1016.40 1016.52 1016.64 1016.77 1016.87 1016.97 1017.06 1017.16
1008.91 1008.88 1009.14 1009.66 1010.35 1011.07 1011.71 1012.19 1012.47 1012.58 1012.61 1012.63 1012.74 1012.97 1013.32 1013.75 1014.21 1014.61 1014.93 1015.14 1015.26 1015.33 1015.39 1015.49 1015.63 1015.81 1016.00 1016.17 1016.30 1016.37 1016.40 1016.40 1016.41 1016.44 1016.50 1016.60 1016.73 1016.85 1016.96 1017.05 1017.13 1017.22 1017.32
1008.42 1008.48 1008.81 1009.37 1010.08 1010.82 1011.48 1012.00 1012.34 1012.53 1012.64 1012.74 1012.90 1013.16 1013.50 1013.90 1014.29 1014.63 1014.89 1015.05 1015.15 1015.23 1015.31 1015.43 1015.60 1015.81 1016.02 1016.20 1016.34 1016.43 1016.47 1016.50 1016.54 1016.61 1016.71 1016.83 1016.97 1017.09 1017.19 1017.27 1017.34 1017.41 1017.51
1008.12 1008.25 1008.63 1009.21 1009.93 1010.66 1011.33 1011.87 1012.25 1012.51 1012.69 1012.85 1013.06 1013.33 1013.66 1014.01 1014.33 1014.61 1014.81 1014.94 1015.02 1015.10 1015.21 1015.37 1015.57 1015.79 1016.01 1016.21 1016.35 1016.45 1016.52 1016.59 1016.66 1016.77 1016.90 1017.05 1017.19 1017.32 1017.41 1017.48 1017.53 1017.60 1017.70
1008.11 1008.31 1008.71 1009.29 1009.98 1010.68 1011.32 1011.84 1012.24 1012.53 1012.75 1012.97 1013.20 1013.48 1013.78 1014.08 1014.35 1014.57 1014.72 1014.83 1014.91 1015.01 1015.15 1015.33 1015.55 1015.79 1016.02 1016.21 1016.36 1016.46 1016.55 1016.63 1016.74 1016.88 1017.04 1017.20 1017.35 1017.47 1017.56 1017.61 1017.67 1017.74 1017.85
1008.44 1008.70 1009.11 1009.66 1010.28 1010.90 1011.46 1011.93 1012.30 1012.59 1012.83 1013.06 1013.32 1013.59 1013.87 1014.14 1014.37 1014.54 1014.66 1014.75 1014.84 1014.96 1015.12 1015.33 1015.57 1015.81 1016.03 1016.21 1016.35 1016.44 1016.53 1016.63 1016.75 1016.90 1017.07 1017.24 1017.39 1017.50 1017.58 1017.63 1017.68 1017.76 1017.89
1009.11 1009.41 1009.81 1010.30 1010.82 1011.31 1011.76 1012.12 1012.42 1012.67 1012.90 1013.14 1013.40 1013.67 1013.94 1014.19 1014.38 1014.53 1014.63 1014.72 1014.81 1014.95 1015.13 1015.35 1015.60 1015.84 1016.04 1016.19 1016.30 1016.38 1016.45 1016.55 1016.67 1016.82 1016.98 1017.14 1017.27 1017.37 1017.43 1017.48 1017.54 1017.63 1017.79
1010.02 1010.35 1010.73 1011.13 1011.51 1011.86 1012.14 1012.37 1012.56 1012.74 1012.94 1013.18 1013.44 1013.72 1013.99 1014.22 1014.40 1014.53 1014.62 1014.70 1014.80 1014.95 1015.13 1015.36 1015.59 1015.81 1015.99 1016.11 1016.20 1016.25 1016.30 1016.37 1016.48 1016.61 1016.75 1016.89 1017.00 1017.08 1017.13 1017.17 1017.23 1017.35 1017.53
1011.03 1011.39 1011.73 1012.02 1012.25 1012.41 1012.52 1012.59 1012.67 1012.77 1012.94 1013.17 1013.44 1013.74 1014.01 1014.25 1014.42 1014.53 1014.61 1014.67 1014.77 1014.90 1015.07 1015.28 1015.50 1015.69 1015.85 1015.95 1016.00 1016.03 1016.06 1016.11 1016.19 1016.30 1016.42 1016.53 1016.61 1016.66 1016.70 1016.74 1016.81 1016.94 1017.15
1011.97 1012.35 1012.64 1012.82 1012.89 1012.88 1012.80 1012.72 1012.68 1012.72 1012.86 1013.09 1013.38 1013.70 1013.99 1014.23 1014.40 1014.50 1014.55 1014.60 1014.66 1014.76 1014.91 1015.09 1015.29 1015.46 1015.59 1015.67 1015.71 1015.73 1015.75 1015.78 1015.84 1015.92 1016.01 1016.09 1016.15 1016.19 1016.21 1016.24 1016.32 1016.46 1016.69
1012.74 1013.12 1013.34 1013.41 1013.33 1013.14 1012.91 1012.70 1012.56 1012.55 1012.67 1012.92 1013.24 1013.59 1013.91 1014.16 1014.32 1014.40 1014.43 1014.44 1014.46 1014.53 1014.64 1014.79 1014.95 1015.10 1015.22 1015.29 1015.33 1015.35 1015.36 1015.39 1015.44 1015.51 1015.58 1015.64 1015.68 1015.70 1015.71 1015.74 1015.82 1015.96 1016.19
1013.23 1013.59 1013.74 1013.69 1013.48 1013.16 1012.80 1012.49 1012.29 1012.25 1012.38 1012.65 1013.01 1013.39 1013.73 1014.00 1014.16 1014.22 1014.22 1014.19 1014.18 1014.20 1014.28 1014.39 1014.52 1014.66 1014.77 1014.85 1014.90 1014.92 1014.95 1014.98 1015.03 1015.08 1015.14 1015.19 1015.22 1015.24 1015.25 1015.28 1015.35 1015.49 1015.70
1013.45 1013.74 1013.82 1013.67 1013.35 1012.92 1012.48 1012.12 1011.89 1011.85 1012.00 1012.30 1012.69 1013.09 1013.46 1013.73 1013.89 1013.95 1013.93 1013.88 1013.83 1013.83 1013.87 1013.95 1014.07 1014.19 1014.30 1014.39 1014.45 1014.49 1014.53 1014.56 1014.61 1014.67 1014.72 1014.77 1014.80 1014.82 1014.83 1014.86 1014.93 1015.05 1015.23
1013.42 1013.63 1013.62 1013.38 1012.99 1012.50 1012.02 1011.64 1011.42 1011.39 1011.56 1011.88 1012.29 1012.71 1013.08 1013.36 1013.53 1013.59 1013.57 1013.51 1013.46 1013.44 1013.47 1013.55 1013.66 1013.77 1013.88 1013.97 1014.04 1014.09 1014.13 1014.17 1014.22 1014.27 1014.32 1014.36 1014.40 1014.42 1014.45 1014.48 1014.54 1014.63 1014.78
1013.23 1013.34 1013.24 1012.95 1012.51 1012.00 1011.53 1011.16 1010.96 1010.95 1011.13 1011.45 1011.85 1012.27 1012.63 1012.90 1013.07 1013.15 1013.15 1013.12 1013.10 1013.11 1013.15 1013.23 1013.34 1013.46 1013.56 1013.65 1013.71 1013.76 1013.79 1013.82 1013.85 1013.89 1013.92 1013.96 1014.00 1014.03 1014.06 1014.10 1014.15 1014.22 1014.33
1013.00 1013.00 1012.83 1012.49 1012.05 1011.56 1011.12 1010.79 1010.62 1010.62 1010.79 1011.08 1011.43 1011.80 1012.12 1012.38 1012.55 1012.66 1012.71 1012.74 1012.77 1012.83 1012.92 1013.03 1013.15 1013.26 1013.37 1013.44 1013.49 1013.51 1013.52 1013.53 1013.53 1013.53 1013.55 1013.57 1013.59 1013.62 1013.65 1013.69 1013.74 1013.79 1013.87
1012.83 1012.74 1012.51 1012.15 1011.73 1011.29 1010.90 1010.62 1010.47 1010.46 1010.58 1010.80 1011.08 1011.36 1011.62 1011.84 1012.01 1012.14 1012.25 1012.36 1012.48 1012.61 1012.76 1012.92 1013.06 1013.19 1013.28 1013.34 1013.37 1013.36 1013.34 1013.30 1013.26 1013.23 1013.20 1013.19 1013.19 1013.20 1013.22 1013.26 1013.29 1013.34 1013.39
1012.80 1012.62 1012.36 1012.02 1011.64 1011.26 1010.94 1010.70 1010.55 1010.52 1010.57 1010.68 1010.83 1011.00 1011.16 1011.32 1011.48 1011.64 1011.81 1012.00 1012.21 1012.43 1012.65 1012.86 1013.04 1013.18 1013.27 1013.31 1013.32 1013.29 1013.23 1013.16 1013.08 1012.99 1012.92 1012.86 1012.82 1012.80 1012.80 1012.81 1012.83 1012.86 1012.89
1012.93 1012.71 1012.43 1012.12 1011.80 1011.49 1011.22 1011.02 1010.87 1010.78 1010.74 1010.72 1010.73 1010.75 1010.80 1010.88 1011.00 1011.17 1011.40 1011.66 1011.95 1012.25 1012.54 1012.80 1013.01 1013.16 1013.26 1013.30 1013.30 1013.26 1013.19 1013.09 1012.98 1012.85 1012.73 1012.62 1012.53 1012.46 1012.41 1012.39 1012.39 1012.40 1012.41
1013.23 1012.97 1012.70 1012.43 1012.16 1011.92 1011.71 1011.52 1011.36 1011.21 1011.06 1010.91 1010.77 1010.65 1010.57 1010.56 1010.62 1010.78 1011.03 1011.34 1011.68 1012.04 1012.38 1012.67 1012.91 1013.08 1013.19 1013.25 1013.26 1013.24 1013.17 1013.08 1012.96 1012.81 1012.66 1012.50 1012.34 1012.21 1012.11 1012.03 1011.99 1011.97 1011.96
1013.64 1013.37 1013.11 1012.86 1012.64 1012.45 1012.28 1012.11 1011.94 1011.73 1011.49 1011.22 1010.94 1010.68 1010.48 1010.37 1010.38 1010.50 1010.74 1011.05 1011.41 1011.78 1012.13 1012.44 1012.69 1012.87 1013.01 1013.10 1013.15 1013.17 1013.15 1013.10 1013.00 1012.86 1012.69 1012.49 1012.29 1012.09 1011.92 1011.78 1011.68 1011.61 1011.57
1014.09 1013.82 1013.56 1013.32 1013.12 1012.96 1012.81 1012.66 1012.47 1012.23 1011.92 1011.57 1011.19 1010.83 1010.54 1010.35 1010.28 1010.35 1010.54 1010.82 1011.15 1011.49 1011.81 1012.09 1012.33 1012.52 1012.68 1012.82 1012.93 1013.02 1013.08 1013.09 1013.05 1012.95 1012.79 1012.58 1012.34 1012.09 1011.85 1011.64 1011.46 1011.33 1011.24
1014.52 1014.22 1013.94 1013.69 1013.48 1013.32 1013.18 1013.04 1012.85 1012.60 1012.28 1011.89 1011.47 1011.06 1010.71 1010.46 1010.33 1010.33 1010.45 1010.66 1010.91 1011.18 1011.43 1011.66 1011.86 1012.04 1012.22 1012.39 1012.57 1012.75 1012.90 1013.01 1013.06 1013.02 1012.91 1012.71 1012.46 1012.17 1011.87 1011.59 1011.34 1011.13 1010.97
1014.86 1014.52 1014.18 1013.88 1013.64 1013.46 1013.31 1013.18 1013.01 1012.78 1012.48 1012.11 1011.70 1011.30 1010.93 1010.65 1010.48 1010.42 1010.46 1010.57 1010.72 1010.89 1011.04 1011.19 1011.33 1011.48 1011.65 1011.85 1012.09 1012.34 1012.59 1012.81 1012.95 1013.00 1012.95 1012.80 1012.56 1012.27 1011.93 1011.60 1011.29 1011.01 1010.77
1015.06 1014.65 1014.24 1013.87 1013.57 1013.34 1013.18 1013.05 1012.91 1012.73 1012.48 1012.18 1011.83 1011.47 1011.14 1010.86 1010.67 1010.55 1010.52 1010.53 1010.57 1010.62 1010.67 1010.72 1010.78 1010.88 1011.03 1011.24 1011.51 1011.83 1012.16 1012.46 1012.70 1012.84 1012.87 1012.78 1012.59 1012.32 1011.99 1011.63 1011.28 1010.94 1010.64
Thickness
5835 5833 5827 5820 5814 5809 5805 5802 5799 5797 5795 5792 5790 5788 5786 5784 5781 5778 5776 5773 5772 5770 5768 5766 5764 5762 5761 5760 5759 5759 5759 5758 5756 5754 5752 5751 5750 5749 5748 5747 5746 5745 5745
5841 5833 5826 5820 5814 5809 5805 5801 5798 5795 5793 5790 5788 5786 5784 5781 5779 5776 5774 5773 5771 5769 5768 5766 5764 5761 5758 5757 5757 5756 5756 5756 5755 5753 5751 5750 5750 5749 5748 5746 5745 5744 5743
5839 5832 5826 5820 5815 5810 5805 5801 5797 5794 5792 5789 5786 5784 5782 5780 5777 5775 5773 5771 5770 5769 5767 5765 5763 5761 5758 5755 5754 5754 5754 5754 5754 5753 5751 5749 5749 5748 5747 5746 5744 5743 5742
5839 5833 5827 5821 5816 5810 5806 5801 5797 5794 5791 5789 5786 5783 5782 5780 5777 5775 5772 5770 5769 5767 5765 5763 5762 5760 5758 5756 5753 5752 5752 5752 5752 5751 5749 5748 5747 5747 5746 5745 5743 5742 5740
5837 5832 5827 5822 5815 5810 5805 5801 5797 5794 5790 5788 5786 5783 5780 5778 5776 5774 5771 5769 5767 5765 5764 5762 5761 5759 5757 5754 5753 5751 5750 5749 5749 5749 5748 5746 5745 5745 5745 5744 5742 5741 5739
5836 5831 5826 5821 5814 5809 5804 5799 5795 5791 5788 5785 5783 5780 5778 5775 5773 5771 5769 5766 5764 5762 5761 5760 5759 5758 5756 5754 5752 5750 5749 5747 5747 5746 5746 5745 5744 5743 5743 5742 5741 5740 5739
5832 5828 5822 5817 5811 5805 5800 5795 5791 5788 5784 5781 5778 5775 5773 5770 5768 5766 5764 5762 5760 5759 5757 5756 5756 5756 5755 5753 5751 5750 5749 5747 5745 5744 5744 5744 5743 5742 5741 5741 5740 5740 5738
5826 5821 5816 5810 5805 5799 5793 5789 5785 5783 5780 5776 5773 5769 5766 5764 5762 5760 5758 5757 5755 5754 5754 5753 5752 5752 5752 5751 5750 5748 5747 5746 5745 5743 5743 5743 5743 5742 5740 5740 5739 5739 5738
5815 5811 5807 5803 5798 5794 5789 5785 5782 5779 5776 5773 5769 5765 5762 5759 5757 5756 5754 5753 5751 5750 5750 5749 5749 5748 5748 5747 5747 5746 5745 5744 5743 5742 5742 5742 5743 5742 5741 5739 5738 5738 5737
5806 5802 5799 5796 5792 5788 5785 5781 5778 5776 5773 5769 5766 5762 5759 5756 5754 5752 5750 5749 5747 5746 5746 5746 5745 5744 5744 5743 5742 5742 5741 5740 5741 5740 5740 5741 5742 5742 5742 5740 5738 5736 5736
5796 5793 5790 5787 5784 5781 5778 5776 5773 5771 5768 5765 5761 5758 5756 5753 5750 5748 5746 5744 5743 5742 5742 5742 5741 5740 5739 5738 5738 5737 5737 5737 5737 5738 5738 5739 5740 5741 5741 5740 5739 5737 5735
5785 5783 5780 5778 5776 5774 5772 5770 5767 5764 5761 5759 5756 5753 5751 5748 5746 5744 5742 5740 5739 5739 5739 5738 5737 5736 5734 5734 5733 5733 5734 5733 5732 5733 5734 5735 5736 5737 5739 5739 5738 5737 5736
5778 5773 5770 5769 5768 5768 5767 5765 5762 5759 5756 5753 5751 5748 5745 5743 5741 5739 5737 5736 5735 5735 5735 5735 5733 5732 5731 5731 5731 5731 5732 5731 5731 5731 5732 5733 5734 5734 5735 5736 5736 5737 5737
5774 5767 5764 5763 5763 5762 5762 5762 5760 5756 5753 5749 5746 5743 5740 5738 5737 5736 5734 5733 5732 5731 5732 5731 5731 5730 5729 5729 5730 5731 5731 5732 5731 5731 5731 5731 5732 5733 5734 5734 5735 5735 5736
5771 5765 5760 5762 5762 5760 5758 5757 5754 5750 5747 5744 5742 5739 5737 5735 5734 5733 5732 5731 5730 5730 5730 5730 5730 5730 5728 5729 5731 5732 5732 5732 5732 5732 5732 5732 5732 5733 5733 5733 5733 5734 5734
5772 5767 5762 5761 5759 5754 5750 5748 5744 5742 5739 5736 5735 5735 5734 5731 5730 5729 5729 5729 5728 5728 5728 5728 5728 5728 5728 5728 5729 5730 5732 5731 5731 5730 5731 5732 5732 5732 5732 5732 5731 5732 5733
5766 5761 5756 5753 5751 5748 5744 5742 5737 5735 5733 5729 5729 5730 5730 5728 5727 5726 5726 5726 5726 5726 5725 5725 5724 5725 5724 5725 5725 5727 5728 5729 5729 5729 5729 5729 5730 5730 5730 5730 5730 5731 5732
5754 5751 5748 5746 5743 5739 5737 5736 5731 5731 5729 5726 5726 5727 5726 5725 5724 5723 5722 5722 5722 5721 5720 5719 5719 5719 5719 5720 5721 5722 5724 5724 5725 5726 5726 5726 5727 5727 5727 5727 5728 5729 5730
5746 5743 5740 5738 5735 5733 5732 5731 5729 5729 5726 5723 5723 5723 5722 5721 5720 5719 5719 5717 5716 5715 5714 5714 5713 5713 5713 5714 5717 5719 5720 5721 5722 5723 5723 5723 5724 5724 5724 5724 5725 5727 5728
5739 5737 5734 5731 5727 5726 5726 5727 5726 5724 5722 5720 5719 5719 5718 5717 5716 5716 5714 5712 5711 5710 5708 5708 5706 5707 5707 5709 5711 5714 5716 5718 5720 5721 5722 5722 5722 5722 5722 5722 5723 5724 5726
5731 5728 5725 5722 5720 5719 5719 5719 5718 5716 5716 5716 5715 5715 5714 5714 5713 5711 5709 5707 5706 5705 5704 5703 5701 5701 5701 5703 5703 5705 5709 5713 5715 5718 5720 5720 5721 5722 5722 5721 5721 5722 5723
5717 5715 5713 5711 5711 5710 5710 5710 5711 5711 5712 5712 5712 5712 5711 5710 5709 5707 5705 5703 5701 5699 5698 5697 5696 5695 5696 5698 5697 5696 5698 5704 5710 5714 5716 5717 5718 5720 5720 5720 5720 5721 5722
5705 5704 5703 5701 5700 5700 5702 5704 5706 5706 5706 5706 5707 5706 5706 5705 5704 5703 5702 5700 5697 5695 5694 5693 5692 5691 5691 5693 5694 5693 5692 5694 5700 5708 5711 5713 5714 5716 5717 5718 5719 5720 5721
5694 5694 5693 5692 5691 5692 5693 5693 5693 5692 5692 5693 5694 5696 5698 5699 5699 5697 5696 5695 5694 5692 5691 5689 5688 5688 5689 5688 5689 5691 5692 5694 5693 5697 5704 5708 5709 5711 5713 5715 5717 5718 5719
5684 5682 5681 5680 5680 5681 5681 5681 5680 5680 5680 5681 5683 5685 5687 5689 5689 5689 5689 5688 5688 5688 5687 5686 5685 5684 5685 5686 5686 5687 5687 5688 5689 5690 5692 5697 5701 5706 5709 5712 5715 5716 5717
5675 5673 5671 5670 5669 5669 5669 5668 5667 5667 5667 5668 5670 5671 5672 5674 5676 5676 5677 5679 5679 5680 5680 5680 5681 5681 5681 5682 5683 5685 5685 5685 5684 5685 5686 5688 5692 5699 5705 5709 5711 5712 5714